Regional Weather Roundup
Issued by NWS

Home | Current Version | Previous Version | Text Only | Print | Product List | Glossary Off
Versions: 1 2 3 4 5 6 7 8 9 10 11 12 13 14 15 16 17 18 19 20 21 22 23 24 25 26 27 28 29 30 31 32 33 34 35 36 37 38 39 40 41 42 43 44 45 46 47 48 49 50

000
ASUS43 KBIS 271520
RWRND

NORTH DAKOTA REGIONAL WEATHER ROUNDUP
NATIONAL WEATHER SERVICE BISMARCK ND
1000 AM CDT FRI MAR 27 2015

NOTE: "FAIR" INDICATES FEW OR NO CLOUDS BELOW 12,000 FEET WITH NO
SIGNIFICANT WEATHER AND/OR OBSTRUCTIONS TO VISIBILITY.


NDZ001>003-009>011-017-271600-
NORTHWEST NORTH DAKOTA

CITY           SKY/WX    TMP DP  RH WIND       PRES   REMARKS
WILLISTON      CLOUDY    37  31  78 S5        29.93S
MINOT          FLURRIES  30  24  78 S17G28    29.95F WCI  18
MINOT AFB      CLOUDY    29  29  99 S16       29.95F FOG     WCI  18
$$

NDZ018>021-031>035-040>046-271600-
SOUTHWEST NORTH DAKOTA

CITY           SKY/WX    TMP DP  RH WIND       PRES   REMARKS
BISMARCK       LGT SNOW  26  21  81 S13       30.09F WCI  15
DICKINSON      PTSUNNY   37  31  78 S15       29.92F
GARRISON         N/A     28  25  88 S12       30.00F WCI  18
HETTINGER ARPT CLOUDY    35  29  78 S12       29.99F
$$

NDZ004>008-012>016-024-026-027-054-271600-
NORTHEAST NORTH DAKOTA

CITY           SKY/WX    TMP DP  RH WIND       PRES   REMARKS
GRAND FORKS    CLOUDY    25  15  66 S13       30.20F WCI  14
GRND FRKS AFB  CLOUDY    26  15  63 S9        30.19F WCI  16
DEVILS LAKE    CLOUDY    27  18  69 S13       30.09F WCI  16
$$

NDZ022-023-025-028>030-036>039-047>053-271600-
SOUTHEAST NORTH DAKOTA

CITY           SKY/WX    TMP DP  RH WIND       PRES   REMARKS
FARGO          MOSUNNY   25  11  55 S12       30.23F WCI  14
JAMESTOWN      CLOUDY    26  16  65 S14       30.14F WCI  14
$$




USA.gov is the U.S. government's official web portal to all federal, state and local government web resources and services.